Torna al catalogo

GJZ 03

AttivoMilitareLEO
NORAD 62292·PAYLOAD·🇨🇳 China

Lanciato Dec 12, 2024 da Jiuquan Satellite Launch Center

Loading…

Prossimi Passaggi (prossime 24 ore)

TLE

AggiornatoSource: Space-Track

Epoca: Sep 14, 2026, 15:00 UTC

1 62292U 24238C   26257.62560807 -.00000052  00000-0  69772-4 0  9999
2 62292  59.9158   0.2972 0025636  60.0306 300.3242 13.75216195 88197

Traccia GJZ 03 in tempo reale con AllMySat

Download on the App Store